EN

Hourly Weather La Canada

Today, 28 July, Wednesday

Time Temperature Precipitation Wind Pressure Humidity
00:00 +15°C° 0 mm 2 mps 605 mmHg 87%
01:00 +15°C° 0 mm 2 mps 604 mmHg 89%
02:00 +14°C° 0 mm 2 mps 604 mmHg 92%
03:00 +14°C° 0 mm 2 mps 604 mmHg 93%
04:00 +14°C° 0 mm 2 mps 604 mmHg 93%
05:00 +13°C° 0 mm 2 mps 604 mmHg 94%
06:00 +15°C° 0 mm 2 mps 605 mmHg 86%
07:00 +17°C° 0 mm 2 mps 606 mmHg 78%
08:00 +18°C° 0 mm 2 mps 606 mmHg 70%
09:00 +20°C° 0 mm 2 mps 607 mmHg 61%
10:00 +22°C° 0 mm 3 mps 607 mmHg 53%
11:00 +25°C° 0 mm 3 mps 607 mmHg 44%
12:00 +26°C° 0 mm 3 mps 607 mmHg 41%
13:00 +26°C° 0 mm 3 mps 607 mmHg 37%
14:00 +27°C° 0 mm 3 mps 606 mmHg 34%
15:00 +26°C° 0 mm 4 mps 606 mmHg 38%
16:00 +25°C° 0 mm 4 mps 605 mmHg 43%
17:00 +25°C° 0 mm 5 mps 604 mmHg 47%
18:00 +22°C° 0 mm 4 mps 604 mmHg 54%
19:00 +20°C° 0 mm 3 mps 604 mmHg 60%
20:00 +18°C° 0 mm 2 mps 604 mmHg 67%
21:00 +17°C° 0 mm 2 mps 604 mmHg 73%
22:00 +17°C° 0 mm 2 mps 604 mmHg 79%
23:00 +16°C° 0 mm 2 mps 604 mmHg 85%

Tomorrow, 29 July, Thursday

Time Temperature Precipitation Wind Pressure Humidity
00:00 +16°C° 0 mm 2 mps 604 mmHg 87%
01:00 +16°C° 0 mm 2 mps 604 mmHg 90%
02:00 +15°C° 0 mm 2 mps 604 mmHg 92%
03:00 +15°C° 0 mm 2 mps 604 mmHg 93%
04:00 +15°C° 0 mm 2 mps 604 mmHg 93%
05:00 +15°C° 0 mm 1 mps 604 mmHg 94%
06:00 +16°C° 0 mm 2 mps 605 mmHg 86%
07:00 +18°C° 0 mm 2 mps 605 mmHg 79%
08:00 +19°C° 0 mm 2 mps 606 mmHg 71%
09:00 +21°C° 0 mm 3 mps 606 mmHg 64%
10:00 +24°C° 0 mm 3 mps 606 mmHg 56%
11:00 +25°C° 0 mm 3 mps 607 mmHg 48%
12:00 +26°C° 0.1 mm 4 mps 606 mmHg 48%
13:00 +26°C° 0.1 mm 4 mps 606 mmHg 47%
14:00 +26°C° 0.1 mm 5 mps 605 mmHg 46%
15:00 +25°C° 0.1 mm 5 mps 605 mmHg 50%
16:00 +23°C° 0.1 mm 5 mps 605 mmHg 53%
17:00 +22°C° 0.1 mm 5 mps 604 mmHg 57%
18:00 +21°C° 0 mm 4 mps 604 mmHg 64%
19:00 +19°C° 0 mm 3 mps 605 mmHg 72%
20:00 +17°C° 0 mm 2 mps 605 mmHg 79%
21:00 +17°C° 0 mm 2 mps 605 mmHg 82%
22:00 +16°C° 0 mm 2 mps 605 mmHg 85%
23:00 +15°C° 0 mm 2 mps 605 mmHg 88%

Day after tomorrow, 30 July, Friday

Time Temperature Precipitation Wind Pressure Humidity
00:00 +15°C° 0 mm 2 mps 604 mmHg 89%
01:00 +15°C° 0 mm 2 mps 604 mmHg 91%
02:00 +14°C° 0 mm 2 mps 604 mmHg 93%
03:00 +14°C° 0 mm 2 mps 604 mmHg 93%
04:00 +14°C° 0 mm 2 mps 604 mmHg 93%
05:00 +14°C° 0 mm 2 mps 604 mmHg 94%
06:00 +15°C° 0 mm 2 mps 605 mmHg 85%
07:00 +17°C° 0 mm 3 mps 606 mmHg 76%
08:00 +19°C° 0 mm 3 mps 607 mmHg 68%
09:00 +21°C° 0 mm 3 mps 607 mmHg 62%
10:00 +22°C° 0 mm 4 mps 607 mmHg 55%
11:00 +25°C° 0 mm 4 mps 607 mmHg 49%
12:00 +25°C° 0 mm 5 mps 607 mmHg 49%
13:00 +25°C° 0 mm 5 mps 607 mmHg 49%
14:00 +26°C° 0 mm 5 mps 606 mmHg 49%
15:00 +25°C° 0.1 mm 5 mps 606 mmHg 54%
16:00 +23°C° 0.1 mm 5 mps 606 mmHg 59%
17:00 +22°C° 0.1 mm 5 mps 605 mmHg 63%
18:00 +20°C° 0.1 mm 5 mps 605 mmHg 71%
19:00 +19°C° 0.1 mm 4 mps 605 mmHg 78%
20:00 +17°C° 0.1 mm 3 mps 605 mmHg 85%
21:00 +17°C° 0 mm 3 mps 605 mmHg 87%
22:00 +16°C° 0 mm 3 mps 605 mmHg 90%
23:00 +15°C° 0 mm 2 mps 605 mmHg 92%

31 July, Saturday

Time Temperature Precipitation Wind Pressure Humidity
00:00 +15°C° 0 mm 2 mps 605 mmHg 92%
01:00 +15°C° 0 mm 2 mps 605 mmHg 93%
02:00 +15°C° 0 mm 2 mps 605 mmHg 93%
03:00 +14°C° 0 mm 2 mps 605 mmHg 93%
04:00 +14°C° 0 mm 2 mps 605 mmHg 92%
05:00 +14°C° 0 mm 2 mps 605 mmHg 92%
06:00 +15°C° 0 mm 2 mps 606 mmHg 84%
07:00 +17°C° 0 mm 3 mps 606 mmHg 76%
08:00 +19°C° 0 mm 3 mps 607 mmHg 69%
09:00 +20°C° 0 mm 3 mps 608 mmHg 60%
10:00 +22°C° 0 mm 3 mps 608 mmHg 51%
11:00 +25°C° 0 mm 3 mps 608 mmHg 43%
12:00 +26°C° 0 mm 4 mps 608 mmHg 40%
13:00 +27°C° 0 mm 4 mps 608 mmHg 37%
14:00 +28°C° 0 mm 4 mps 608 mmHg 34%
15:00 +27°C° 0 mm 5 mps 607 mmHg 38%
16:00 +26°C° 0 mm 6 mps 607 mmHg 42%
17:00 +24°C° 0 mm 6 mps 606 mmHg 45%
18:00 +22°C° 0 mm 5 mps 606 mmHg 56%
19:00 +20°C° 0 mm 4 mps 606 mmHg 66%
20:00 +18°C° 0 mm 3 mps 606 mmHg 76%
21:00 +17°C° 0 mm 3 mps 606 mmHg 80%
22:00 +16°C° 0 mm 2 mps 606 mmHg 84%
23:00 +16°C° 0 mm 1 mps 606 mmHg 88%

1 August, Sunday

Time Temperature Precipitation Wind Pressure Humidity
00:00 +15°C° 0 mm 1 mps 606 mmHg 89%
01:00 +15°C° 0 mm 1 mps 605 mmHg 90%
02:00 +15°C° 0 mm 1 mps 605 mmHg 91%
03:00 +15°C° 0 mm 1 mps 605 mmHg 92%
04:00 +14°C° 0 mm 1 mps 605 mmHg 93%
05:00 +14°C° 0 mm 1 mps 605 mmHg 94%
06:00 +16°C° 0 mm 2 mps 606 mmHg 87%
07:00 +17°C° 0 mm 2 mps 607 mmHg 80%
08:00 +19°C° 0 mm 2 mps 607 mmHg 74%
09:00 +21°C° 0 mm 3 mps 607 mmHg 65%
10:00 +24°C° 0 mm 3 mps 608 mmHg 57%
11:00 +25°C° 0 mm 3 mps 608 mmHg 49%
12:00 +26°C° 0 mm 4 mps 608 mmHg 45%
13:00 +27°C° 0 mm 4 mps 607 mmHg 41%
14:00 +29°C° 0 mm 4 mps 607 mmHg 37%
15:00 +27°C° 0 mm 5 mps 606 mmHg 41%
16:00 +26°C° 0 mm 5 mps 606 mmHg 45%
17:00 +24°C° 0 mm 6 mps 605 mmHg 49%
18:00 +22°C° 0 mm 5 mps 605 mmHg 56%
19:00 +20°C° 0 mm 4 mps 605 mmHg 63%
20:00 +18°C° 0 mm 3 mps 605 mmHg 69%
21:00 +18°C° 0 mm 2 mps 605 mmHg 73%
22:00 +18°C° 0 mm 1 mps 605 mmHg 77%
23:00 +16°C° 0 mm 1 mps 605 mmHg 81%

2 August, Monday

Time Temperature Precipitation Wind Pressure Humidity
00:00 +16°C° 0 mm 1 mps 605 mmHg 83%
01:00 +15°C° 0 mm 1 mps 604 mmHg 84%
02:00 +15°C° 0 mm 1 mps 604 mmHg 86%
03:00 +15°C° 0 mm 1 mps 604 mmHg 86%
04:00 +14°C° 0 mm 1 mps 604 mmHg 87%
05:00 +14°C° 0 mm 1 mps 604 mmHg 88%
06:00 +16°C° 0 mm 1 mps 605 mmHg 81%
07:00 +18°C° 0 mm 1 mps 606 mmHg 74%
08:00 +20°C° 0 mm 1 mps 606 mmHg 67%
09:00 +22°C° 0 mm 1 mps 606 mmHg 61%
10:00 +24°C° 0 mm 1 mps 607 mmHg 54%
11:00 +25°C° 0 mm 1 mps 607 mmHg 47%
12:00 +26°C° 0.2 mm 2 mps 606 mmHg 46%
13:00 +26°C° 0.2 mm 2 mps 606 mmHg 45%
14:00 +27°C° 0.2 mm 3 mps 605 mmHg 44%
15:00 +25°C° 0.5 mm 2 mps 605 mmHg 52%
16:00 +24°C° 0.5 mm 2 mps 604 mmHg 60%
17:00 +21°C° 0.5 mm 2 mps 604 mmHg 68%
18:00 +20°C° 1.8 mm 2 mps 604 mmHg 74%
19:00 +19°C° 1.8 mm 2 mps 604 mmHg 80%
20:00 +18°C° 1.8 mm 2 mps 604 mmHg 86%
21:00 +17°C° 0.4 mm 2 mps 604 mmHg 86%
22:00 +18°C° 0.4 mm 1 mps 604 mmHg 86%
23:00 +18°C° 0.4 mm 1 mps 605 mmHg 86%
Show more